BEIDOU-2 IGSO-5

Last updated on Mon Sep 07 2026 00:02:58 GMT+0000 (Coordinated Universal Time)

1 37948U 11073A 26249.04007610 -.00000109 00000+0 00000+0 0 9993 2 37948 47.5355 270.5334 0116796 223.9363 320.7580 1.00279897 53943
UTC large
Height (km)
Speed (km/s)
/
Latitude / Longitude
Inclination (degrees)
Orbital Period (minutes)
Azimuth
Elevation
Range (km)
Doppler Factor

Next 0 passes for location: London (51.5072 / 0.1276)

No passes found over London.